Regional Weather Roundup
Issued by NWS

Home | Current Version | Previous Version | Graphics & Text | Print | Product List | Glossary On
Versions: 1 2 3 4 5 6 7 8 9 10 11 12 13 14 15 16 17 18 19 20 21 22 23 24 25 26 27 28 29 30 31 32 33 34 35 36 37 38 39 40 41 42 43 44 45 46 47 48 49 50
000
ASUS43 KBIS 181302
RWRND

NORTH DAKOTA REGIONAL WEATHER ROUNDUP
NATIONAL WEATHER SERVICE BISMARCK ND
700 AM CST SUN FEB 18 2018

NOTE: "FAIR" INDICATES FEW OR NO CLOUDS BELOW 12,000 FEET WITH NO
SIGNIFICANT WEATHER AND/OR OBSTRUCTIONS TO VISIBILITY.


NDZ001>003-009>011-017-181400-
NORTHWEST NORTH DAKOTA

CITY           SKY/WX    TMP DP  RH WIND       PRES   REMARKS
WILLISTON      LGT SNOW   9   5  84 NE12      29.80R FOG     WCI  -6
MINOT          LGT SNOW   7   3  84 N9        29.80R FOG     WCI  -7
MINOT AFB      CLOUDY     6   2  83 NE8       29.81R BLWGSNOWWCI  -6
$$

NDZ018>021-031>035-040>046-181400-
SOUTHWEST NORTH DAKOTA

CITY           SKY/WX    TMP DP  RH WIND       PRES   REMARKS
BISMARCK       CLOUDY    14   9  80 NE18G26   29.65F WCI  -3
DICKINSON      LGT SNOW   8   4  83 NE21      29.60R VSB 3/4 WCI -12
GARRISON         N/A      7   3  84 NE12G20   29.72R WCI  -8
HETTINGER ARPT CLOUDY    14  12  92 NE14      29.53R WCI  -1
$$

NDZ004>008-012>016-024-026-027-054-181400-
NORTHEAST NORTH DAKOTA

CITY           SKY/WX    TMP DP  RH WIND       PRES   REMARKS
GRAND FORKS    LGT SNOW  12   8  84 NE9       29.89S VSB 1   WCI   0
GRND FRKS AFB  CLOUDY    11   6  82 E9        29.87F BLWGSNOWWCI  -2
DEVILS LAKE    LGT SNOW   6   3  87 NE9       29.81F FOG     WCI  -8
$$

NDZ022-023-025-028>030-036>039-047>053-181400-
SOUTHEAST NORTH DAKOTA

CITY           SKY/WX    TMP DP  RH WIND       PRES   REMARKS
FARGO          CLOUDY    17  14  88 E8        29.80F WCI   7
JAMESTOWN      CLOUDY    13  11  92 E18       29.70F WCI  -4
$$




USA.gov is the U.S. government's official web portal to all federal, state and local government web resources and services.